Location: �perlecques
(50.8057°N, 2.1521°E)
Time: 09:28:01
(UTC+00:00)

FREGAT/IRIS - Pass Details

Date: 09 April 2020
Orbit: 327 x 333 km, 96.9° (Epoch: 24 May)

Event Time Altitude Azimuth Distance (km) Brightness Sun altitude
Rises 19:08:19 0° 162° (SSE) 2,119 6.0 -5.5°
Reaches altitude 10° 19:10:13 10° 160° (SSE) 1,287 4.8 -5.7°
Maximum altitude 19:12:56 72° 76° (ENE) 365 2.3 -6.1°
Drops below altitude 10° 19:15:42 10° 351° (N) 1,305 5.7 -6.5°
Sets 19:17:38 0° 349° (N) 2,153 6.8 -6.8°
